Location: Ravensburg
(48.5621°N, 13.4088°E)
Time: 02:55:13
(UTC+01:00)

ISS - Pass Details

Date: 15 November 2017
Orbit: 402 x 407 km, 51.6° (Epoch: 23 November)

Event Time Altitude Azimuth Distance (km) Brightness Sun altitude
Exits shadow 06:27:52 - 265° (W) 1,542 -1.5 -7.9°
Reaches altitude 10° 06:28:12 10° 261° (W) 1,454 -1.6 -7.9°
Maximum altitude 06:30:12 15° 223° (SW) 1,169 -1.7 -7.6°
Drops below altitude 10° 06:32:13 10° 184° (S) 1,449 -0.8 -7.2°
Sets 06:34:52 0° 161° (SSE) 2,303 0.6 -6.8°
